Back to catalog

DELTA 1 DEB

AlivePO
NORAD 12263·DEBRIS·🇺🇸 United States

Launched Mar 5, 1978 from Vandenberg Space Force Base

Loading…

Next Passes (next 24 hours)

TLE

FreshSource: Space-Track

Epoch: Sep 14, 2026, 12:20 UTC

1 12263U 78026DG  26257.51415687  .00000413  00000-0  54560-3 0  9997
2 12263  98.9419   0.5810 0417530 138.7767 224.5697 13.34467615181699

Track DELTA 1 DEB in real time with AllMySat

Download on the App Store